Time,TemperatureF,DewpointF,PressureIn,WindDirection,WindDirectionDegrees,WindSpeedMPH,WindSpeedGustMPH,Humidity,HourlyPrecipIn,Conditions,Clouds,dailyrainin,SoftwareType,DateUTC
2013-08-11 00:01:00,80.1,74.1,30.14,NE,45,3.0,-999.0,82,-99.99,,,-99.99,meteohub,2013-08-11 04:01:00,
2013-08-11 00:02:00,80.1,74.1,30.14,NE,45,2.0,-999.0,82,-99.99,,,-99.99,meteohub,2013-08-11 04:02:00,
2013-08-11 00:03:00,80.1,74.5,30.14,NE,45,2.0,-999.0,83,-99.99,,,-99.99,meteohub,2013-08-11 04:03:00,
2013-08-11 00:04:00,80.1,74.1,30.14,NE,45,3.0,-999.0,82,-99.99,,,-99.99,meteohub,2013-08-11 04:04:00,
2013-08-11 00:05:00,80.1,74.5,30.14,NE,45,4.0,-999.0,83,-99.99,,,-99.99,meteohub,2013-08-11 04:05:00,
2013-08-11 00:10:00,80.1,74.5,30.14,NE,45,3.0,-999.0,83,-99.99,,,-99.99,meteohub,2013-08-11 04:10:00,
2013-08-11 00:15:00,79.0,73.4,30.14,NE,45,5.0,-999.0,83,-99.99,,,-99.99,meteohub,2013-08-11 04:15:00,
2013-08-11 00:20:00,79.0,75.2,30.14,NE,45,6.0,-999.0,88,-99.99,,,-99.99,meteohub,2013-08-11 04:20:00,
2013-08-11 00:25:00,79.0,73.8,30.14,NE,45,4.0,-999.0,84,-99.99,,,-99.99,meteohub,2013-08-11 04:25:00,
2013-08-11 00:30:00,79.0,73.8,30.14,NE,45,6.0,-999.0,84,-99.99,,,-99.99,meteohub,2013-08-11 04:30:00,
2013-08-11 00:35:00,79.0,73.4,30.14,NE,45,0.0,-999.0,83,-99.99,,,-99.99,meteohub,2013-08-11 04:35:00,
2013-08-11 00:40:00,79.0,73.8,30.14,NE,45,2.0,-999.0,84,-99.99,,,-99.99,meteohub,2013-08-11 04:40:00,
2013-08-11 00:45:00,79.0,74.1,30.14,NE,45,3.0,-999.0,85,-99.99,,,-99.99,meteohub,2013-08-11 04:45:00,
2013-08-11 00:51:00,79.0,74.1,30.14,NE,45,4.0,-999.0,85,-99.99,,,-99.99,meteohub,2013-08-11 04:51:00,
2013-08-11 00:56:00,79.0,75.7,30.14,NE,45,4.0,-999.0,90,-99.99,,,-99.99,meteohub,2013-08-11 04:56:00,
2013-08-11 01:01:00,79.0,74.5,30.14,NE,45,1.0,-999.0,86,-99.99,,,-99.99,meteohub,2013-08-11 05:01:00,
2013-08-11 01:07:00,79.0,74.1,30.14,NE,45,5.0,-999.0,85,-99.99,,,-99.99,meteohub,2013-08-11 05:07:00,
2013-08-11 01:12:00,79.0,74.1,30.14,NE,45,3.0,-999.0,85,-99.99,,,-99.99,meteohub,2013-08-11 05:12:00,
2013-08-11 01:17:00,79.0,75.7,30.14,NE,45,5.0,-999.0,90,-99.99,,,-99.99,meteohub,2013-08-11 05:17:00,
2013-08-11 01:22:00,79.0,74.5,30.14,NE,45,2.0,-999.0,86,-99.99,,,-99.99,meteohub,2013-08-11 05:22:00,
2013-08-11 01:27:00,79.0,74.5,30.14,NE,45,6.0,-999.0,86,-99.99,,,-99.99,meteohub,2013-08-11 05:27:00,
2013-08-11 01:32:00,79.0,74.1,30.14,NE,45,6.0,-999.0,85,-99.99,,,-99.99,meteohub,2013-08-11 05:32:00,
2013-08-11 01:37:00,79.0,74.1,30.14,NE,45,6.0,-999.0,85,-99.99,,,-99.99,meteohub,2013-08-11 05:37:00,
2013-08-11 01:42:00,79.0,74.5,30.14,NE,45,6.0,-999.0,86,-99.99,,,-99.99,meteohub,2013-08-11 05:42:00,
2013-08-11 01:47:00,79.0,74.5,30.14,NE,45,4.0,-999.0,86,-99.99,,,-99.99,meteohub,2013-08-11 05:47:00,
2013-08-11 01:52:00,79.0,74.8,30.14,NE,45,4.0,-999.0,87,-99.99,,,-99.99,meteohub,2013-08-11 05:52:00,
2013-08-11 01:58:00,79.0,76.1,30.14,NE,45,1.0,-999.0,91,-99.99,,,-99.99,meteohub,2013-08-11 05:58:00,
2013-08-11 02:03:00,79.0,74.8,30.14,NE,45,1.0,-999.0,87,-99.99,,,-99.99,meteohub,2013-08-11 06:03:00,
2013-08-11 02:10:00,79.0,74.8,30.14,NE,45,2.0,-999.0,87,-99.99,,,-99.99,meteohub,2013-08-11 06:10:00,
2013-08-11 02:15:00,78.1,75.6,30.14,NE,45,5.0,-999.0,92,-99.99,,,-99.99,meteohub,2013-08-11 06:15:00,
2013-08-11 02:20:00,79.0,75.2,30.14,NE,45,3.0,-999.0,88,-99.99,,,-99.99,meteohub,2013-08-11 06:20:00,
2013-08-11 02:26:00,79.0,75.2,30.14,NE,45,2.0,-999.0,88,-99.99,,,-99.99,meteohub,2013-08-11 06:26:00,
2013-08-11 02:31:00,79.0,75.2,30.14,NE,45,4.0,-999.0,88,-99.99,,,-99.99,meteohub,2013-08-11 06:31:00,
2013-08-11 02:36:00,79.0,75.4,30.14,NE,45,7.0,-999.0,89,-99.99,,,-99.99,meteohub,2013-08-11 06:36:00,
2013-08-11 02:42:00,78.1,76.3,30.13,NE,45,5.0,-999.0,94,-99.99,,,-99.99,meteohub,2013-08-11 06:42:00,
2013-08-11 02:49:00,79.0,75.7,30.13,NE,45,4.0,-999.0,90,-99.99,,,-99.99,meteohub,2013-08-11 06:49:00,
2013-08-11 02:55:00,78.1,76.3,30.13,NE,45,6.0,-999.0,94,-99.99,,,-99.99,meteohub,2013-08-11 06:55:00,
2013-08-11 03:00:00,78.1,74.8,30.13,NE,45,6.0,-999.0,90,-99.99,,,-99.99,meteohub,2013-08-11 07:00:00,
2013-08-11 03:06:00,78.1,74.8,30.12,NE,45,4.0,-999.0,90,-99.99,,,-99.99,meteohub,2013-08-11 07:06:00,
2013-08-11 03:12:00,78.1,75.6,30.12,NE,45,7.0,-999.0,92,-99.99,,,-99.99,meteohub,2013-08-11 07:12:00,
2013-08-11 03:17:00,78.1,75.6,30.12,NE,45,6.0,-999.0,92,-99.99,,,-99.99,meteohub,2013-08-11 07:17:00,
2013-08-11 03:22:00,78.1,75.6,30.12,NE,45,6.0,-999.0,92,-99.99,,,-99.99,meteohub,2013-08-11 07:22:00,
2013-08-11 03:27:00,78.1,75.6,30.12,NE,45,6.0,-999.0,92,-99.99,,,-99.99,meteohub,2013-08-11 07:27:00,
2013-08-11 03:32:00,78.1,75.6,30.12,NE,45,6.0,-999.0,92,-99.99,,,-99.99,meteohub,2013-08-11 07:32:00,
2013-08-11 03:37:00,78.1,76.8,30.12,NE,45,7.0,-999.0,96,-99.99,,,-99.99,meteohub,2013-08-11 07:37:00,
2013-08-11 03:42:00,78.1,75.6,30.12,NE,45,6.0,-999.0,92,-99.99,,,-99.99,meteohub,2013-08-11 07:42:00,
2013-08-11 03:50:00,78.1,75.2,30.12,NE,45,8.0,-999.0,91,-99.99,,,-99.99,meteohub,2013-08-11 07:50:00,
2013-08-11 03:57:00,78.1,75.2,30.12,NE,45,8.0,-999.0,91,-99.99,,,-99.99,meteohub,2013-08-11 07:57:00,
2013-08-11 04:02:00,78.1,75.2,30.12,NE,45,5.0,-999.0,91,-99.99,,,-99.99,meteohub,2013-08-11 08:02:00,
2013-08-11 04:07:00,78.1,75.2,30.12,NE,45,7.0,-999.0,91,-99.99,,,-99.99,meteohub,2013-08-11 08:07:00,
2013-08-11 04:12:00,78.1,75.2,30.12,NE,45,6.0,-999.0,91,-99.99,,,-99.99,meteohub,2013-08-11 08:12:00,
2013-08-11 04:20:00,79.0,75.7,30.12,NE,45,8.0,-999.0,90,-99.99,,,-99.99,meteohub,2013-08-11 08:20:00,
2013-08-11 04:27:00,79.0,75.7,30.12,NE,45,4.0,-999.0,90,-99.99,,,-99.99,meteohub,2013-08-11 08:27:00,
2013-08-11 04:35:00,79.0,75.7,30.12,NE,45,7.0,-999.0,90,-99.99,,,-99.99,meteohub,2013-08-11 08:35:00,
2013-08-11 04:40:00,78.1,75.2,30.12,NE,45,7.0,-999.0,91,-99.99,,,-99.99,meteohub,2013-08-11 08:40:00,
2013-08-11 04:45:00,78.1,75.2,30.12,NE,45,7.0,-999.0,91,-99.99,,,-99.99,meteohub,2013-08-11 08:45:00,
2013-08-11 04:50:00,78.1,75.2,30.12,NE,45,4.0,-999.0,91,-99.99,,,-99.99,meteohub,2013-08-11 08:50:00,
2013-08-11 04:56:00,78.1,76.8,30.12,NE,45,5.0,-999.0,96,-99.99,,,-99.99,meteohub,2013-08-11 08:56:00,
2013-08-11 05:03:00,78.1,75.6,30.12,NE,45,5.0,-999.0,92,-99.99,,,-99.99,meteohub,2013-08-11 09:03:00,
2013-08-11 05:09:00,78.1,75.6,30.12,NE,45,7.0,-999.0,92,-99.99,,,-99.99,meteohub,2013-08-11 09:09:00,
2013-08-11 05:17:00,78.1,75.6,30.12,NE,45,7.0,-999.0,92,-99.99,,,-99.99,meteohub,2013-08-11 09:17:00,
2013-08-11 05:22:00,78.1,77.2,30.12,NE,45,7.0,-999.0,97,-99.99,,,-99.99,meteohub,2013-08-11 09:22:00,
2013-08-11 05:27:00,78.1,75.6,30.12,NE,45,6.0,-999.0,92,-99.99,,,-99.99,meteohub,2013-08-11 09:27:00,
2013-08-11 05:35:00,78.1,75.9,30.12,NE,45,6.0,-999.0,93,-99.99,,,-99.99,meteohub,2013-08-11 09:35:00,
2013-08-11 05:40:00,78.1,75.9,30.12,NE,45,5.0,-999.0,93,-99.99,,,-99.99,meteohub,2013-08-11 09:40:00,
2013-08-11 05:47:00,78.1,75.6,30.12,NE,45,3.0,-999.0,92,-99.99,,,-99.99,meteohub,2013-08-11 09:47:00,
2013-08-11 05:52:00,78.1,75.9,30.12,NE,45,5.0,-999.0,93,-99.99,,,-99.99,meteohub,2013-08-11 09:52:00,
2013-08-11 05:57:00,78.1,77.5,30.12,NE,45,7.0,-999.0,98,-99.99,,,-99.99,meteohub,2013-08-11 09:57:00,
2013-08-11 06:02:00,78.1,75.9,30.12,NE,45,4.0,-999.0,93,-99.99,,,-99.99,meteohub,2013-08-11 10:02:00,
2013-08-11 06:10:00,78.1,75.9,30.12,NE,45,5.0,-999.0,93,-99.99,,,-99.99,meteohub,2013-08-11 10:10:00,
2013-08-11 06:16:00,78.1,75.9,30.12,NE,45,6.0,-999.0,93,-99.99,,,-99.99,meteohub,2013-08-11 10:16:00,
2013-08-11 06:21:00,78.1,75.9,30.12,NE,45,4.0,-999.0,93,-99.99,,,-99.99,meteohub,2013-08-11 10:21:00,
2013-08-11 06:26:00,78.1,75.9,30.13,NE,45,6.0,-999.0,93,-99.99,,,-99.99,meteohub,2013-08-11 10:26:00,
2013-08-11 06:31:00,77.0,76.5,30.13,NE,45,8.0,-999.0,98,-99.99,,,-99.99,meteohub,2013-08-11 10:31:00,
2013-08-11 06:38:00,78.1,75.9,30.13,NE,45,6.0,-999.0,93,-99.99,,,-99.99,meteohub,2013-08-11 10:38:00,
2013-08-11 06:44:00,78.1,76.3,30.13,NE,45,8.0,-999.0,94,-99.99,,,-99.99,meteohub,2013-08-11 10:44:00,
2013-08-11 06:49:00,78.1,76.3,30.13,NE,45,6.0,-999.0,94,-99.99,,,-99.99,meteohub,2013-08-11 10:49:00,
2013-08-11 06:55:00,78.1,76.3,30.13,NE,45,6.0,-999.0,94,-99.99,,,-99.99,meteohub,2013-08-11 10:55:00,
2013-08-11 07:00:00,77.0,76.6,30.13,NE,45,6.0,-999.0,99,-99.99,,,-99.99,meteohub,2013-08-11 11:00:00,
2013-08-11 07:07:00,78.1,76.3,30.13,NE,45,6.0,-999.0,94,-99.99,,,-99.99,meteohub,2013-08-11 11:07:00,
2013-08-11 07:12:00,78.1,76.5,30.13,NE,45,3.0,-999.0,95,-99.99,,,-99.99,meteohub,2013-08-11 11:12:00,
2013-08-11 07:17:00,78.1,76.5,30.13,NE,45,5.0,-999.0,95,-99.99,,,-99.99,meteohub,2013-08-11 11:17:00,
2013-08-11 07:22:00,78.1,76.5,30.13,NE,45,8.0,-999.0,95,-99.99,,,-99.99,meteohub,2013-08-11 11:22:00,
2013-08-11 07:27:00,78.1,76.3,30.13,NE,45,4.0,-999.0,94,-99.99,,,-99.99,meteohub,2013-08-11 11:27:00,
2013-08-11 07:32:00,78.1,76.3,30.14,NE,45,3.0,-999.0,94,-99.99,,,-99.99,meteohub,2013-08-11 11:32:00,
2013-08-11 07:37:00,78.1,76.3,30.14,NE,45,2.0,-999.0,94,-99.99,,,-99.99,meteohub,2013-08-11 11:37:00,
2013-08-11 07:42:00,78.1,77.5,30.14,NE,45,2.0,-999.0,98,-99.99,,,-99.99,meteohub,2013-08-11 11:42:00,
2013-08-11 07:47:00,79.0,76.8,30.14,NE,45,5.0,-999.0,93,-99.99,,,-99.99,meteohub,2013-08-11 11:47:00,
2013-08-11 07:56:00,79.0,76.1,30.14,NE,45,7.0,-999.0,91,-99.99,,,-99.99,meteohub,2013-08-11 11:56:00,
2013-08-11 08:02:00,79.0,75.4,30.14,NE,45,4.0,-999.0,89,-99.99,,,-99.99,meteohub,2013-08-11 12:02:00,
2013-08-11 08:07:00,80.1,76.1,30.14,NE,45,5.0,-999.0,88,-99.99,,,-99.99,meteohub,2013-08-11 12:07:00,
2013-08-11 08:12:00,80.1,75.9,30.14,NE,45,9.0,-999.0,87,-99.99,,,-99.99,meteohub,2013-08-11 12:12:00,
2013-08-11 08:17:00,80.1,77.5,30.14,NE,45,10.0,-999.0,92,-99.99,,,-99.99,meteohub,2013-08-11 12:17:00,
2013-08-11 08:22:00,80.1,75.6,30.14,NE,45,5.0,-999.0,86,-99.99,,,-99.99,meteohub,2013-08-11 12:22:00,
2013-08-11 08:27:00,80.1,75.2,30.14,NE,45,10.0,-999.0,85,-99.99,,,-99.99,meteohub,2013-08-11 12:27:00,
2013-08-11 08:32:00,81.0,76.1,30.14,NE,45,5.0,-999.0,85,-99.99,,,-99.99,meteohub,2013-08-11 12:32:00,
2013-08-11 08:37:00,81.0,75.7,30.14,NE,45,8.0,-999.0,84,-99.99,,,-99.99,meteohub,2013-08-11 12:37:00,
2013-08-11 08:44:00,81.0,75.7,30.14,NE,45,7.0,-999.0,84,-99.99,,,-99.99,meteohub,2013-08-11 12:44:00,
2013-08-11 08:49:00,81.0,75.4,30.16,NE,45,11.0,-999.0,83,-99.99,,,-99.99,meteohub,2013-08-11 12:49:00,
2013-08-11 08:55:00,82.0,75.6,30.14,NE,45,9.0,-999.0,81,-99.99,,,-99.99,meteohub,2013-08-11 12:55:00,
2013-08-11 09:02:00,82.0,75.6,30.16,SSE,157,7.0,-999.0,81,-99.99,,,-99.99,meteohub,2013-08-11 13:02:00,
2013-08-11 09:07:00,82.0,74.8,30.16,SE,135,6.0,-999.0,79,-99.99,,,-99.99,meteohub,2013-08-11 13:07:00,
2013-08-11 09:12:00,82.0,76.3,30.16,NE,45,10.0,-999.0,83,-99.99,,,-99.99,meteohub,2013-08-11 13:12:00,
2013-08-11 09:20:00,82.9,75.4,30.16,SE,135,10.0,-999.0,78,-99.99,,,-99.99,meteohub,2013-08-11 13:20:00,
2013-08-11 09:25:00,82.9,74.7,30.16,NE,45,10.0,-999.0,76,-99.99,,,-99.99,meteohub,2013-08-11 13:25:00,
2013-08-11 09:32:00,82.9,74.1,30.16,NE,45,7.0,-999.0,75,-99.99,,,-99.99,meteohub,2013-08-11 13:32:00,
2013-08-11 09:39:00,82.9,74.1,30.16,SE,135,13.0,-999.0,75,-99.99,,,-99.99,meteohub,2013-08-11 13:39:00,
2013-08-11 09:44:00,82.9,73.8,30.16,NE,45,12.0,-999.0,74,-99.99,,,-99.99,meteohub,2013-08-11 13:44:00,
2013-08-11 09:49:00,84.0,74.5,30.16,SE,135,12.0,-999.0,73,-99.99,,,-99.99,meteohub,2013-08-11 13:49:00,
2013-08-11 09:56:00,84.0,76.5,30.16,SE,135,9.0,-999.0,78,-99.99,,,-99.99,meteohub,2013-08-11 13:56:00,
2013-08-11 10:01:00,84.0,76.5,30.16,NE,45,8.0,-999.0,78,-99.99,,,-99.99,meteohub,2013-08-11 14:01:00,
2013-08-11 10:06:00,84.0,74.5,30.16,SE,135,5.0,-999.0,73,-99.99,,,-99.99,meteohub,2013-08-11 14:06:00,
2013-08-11 10:12:00,84.0,73.6,30.16,SE,135,14.0,-999.0,71,-99.99,,,-99.99,meteohub,2013-08-11 14:12:00,
2013-08-11 10:17:00,84.0,74.5,30.16,SE,135,12.0,-999.0,73,-99.99,,,-99.99,meteohub,2013-08-11 14:17:00,
2013-08-11 10:23:00,84.0,74.5,30.16,SE,135,8.0,-999.0,73,-99.99,,,-99.99,meteohub,2013-08-11 14:23:00,
2013-08-11 10:28:00,84.0,74.5,30.16,SE,135,10.0,-999.0,73,-99.99,,,-99.99,meteohub,2013-08-11 14:28:00,
2013-08-11 10:33:00,84.0,73.9,30.16,SE,135,15.0,-999.0,72,-99.99,,,-99.99,meteohub,2013-08-11 14:33:00,
2013-08-11 10:41:00,84.9,75.2,30.16,SE,135,14.0,-999.0,73,-99.99,,,-99.99,meteohub,2013-08-11 14:41:00,
2013-08-11 10:46:00,84.9,74.1,30.16,NE,45,16.0,-999.0,70,-99.99,,,-99.99,meteohub,2013-08-11 14:46:00,
2013-08-11 10:51:00,84.9,74.1,30.16,SE,135,14.0,-999.0,70,-99.99,,,-99.99,meteohub,2013-08-11 14:51:00,
2013-08-11 10:57:00,84.9,74.8,30.16,SE,135,11.0,-999.0,72,-99.99,,,-99.99,meteohub,2013-08-11 14:57:00,
2013-08-11 11:04:00,84.9,74.1,30.16,NE,45,13.0,-999.0,70,-99.99,,,-99.99,meteohub,2013-08-11 15:04:00,
2013-08-11 11:11:00,84.9,74.1,30.17,SE,135,9.0,-999.0,70,-99.99,,,-99.99,meteohub,2013-08-11 15:11:00,
2013-08-11 11:17:00,84.9,74.1,30.17,SE,135,10.0,-999.0,70,-99.99,,,-99.99,meteohub,2013-08-11 15:17:00,
2013-08-11 11:22:00,84.9,73.6,30.17,SE,135,12.0,-999.0,69,-99.99,,,-99.99,meteohub,2013-08-11 15:22:00,
2013-08-11 11:27:00,84.9,73.2,30.16,SE,135,10.0,-999.0,68,-99.99,,,-99.99,meteohub,2013-08-11 15:27:00,
2013-08-11 11:32:00,86.0,75.0,30.16,SE,135,11.0,-999.0,70,-99.99,,,-99.99,meteohub,2013-08-11 15:32:00,
2013-08-11 11:40:00,84.9,73.6,30.16,SE,135,12.0,-999.0,69,-99.99,,,-99.99,meteohub,2013-08-11 15:40:00,
2013-08-11 11:48:00,84.9,73.2,30.16,SE,135,10.0,-999.0,68,-99.99,,,-99.99,meteohub,2013-08-11 15:48:00,
2013-08-11 11:57:00,86.0,73.8,30.16,SE,135,12.0,-999.0,67,-99.99,,,-99.99,meteohub,2013-08-11 15:57:00,
2013-08-11 12:02:00,86.0,73.2,30.16,SE,135,9.0,-999.0,66,-99.99,,,-99.99,meteohub,2013-08-11 16:02:00,
2013-08-11 12:07:00,86.0,72.9,30.16,SE,135,9.0,-999.0,65,-99.99,,,-99.99,meteohub,2013-08-11 16:07:00,
2013-08-11 12:12:00,86.0,73.8,30.16,SE,135,10.0,-999.0,67,-99.99,,,-99.99,meteohub,2013-08-11 16:12:00,
2013-08-11 12:17:00,86.0,73.2,30.16,NE,45,14.0,-999.0,66,-99.99,,,-99.99,meteohub,2013-08-11 16:17:00,
2013-08-11 12:23:00,86.0,72.0,30.16,SE,135,8.0,-999.0,63,-99.99,,,-99.99,meteohub,2013-08-11 16:23:00,
2013-08-11 12:28:00,87.1,74.3,30.14,SE,135,9.0,-999.0,66,-99.99,,,-99.99,meteohub,2013-08-11 16:28:00,
2013-08-11 12:34:00,87.1,72.9,30.14,SE,135,10.0,-999.0,63,-99.99,,,-99.99,meteohub,2013-08-11 16:34:00,
2013-08-11 12:39:00,87.1,74.3,30.14,SE,135,10.0,-999.0,66,-99.99,,,-99.99,meteohub,2013-08-11 16:39:00,
2013-08-11 12:44:00,87.1,72.9,30.14,SE,135,12.0,-999.0,63,-99.99,,,-99.99,meteohub,2013-08-11 16:44:00,
2013-08-11 12:51:00,87.1,73.4,30.14,SE,135,6.0,-999.0,64,-99.99,,,-99.99,meteohub,2013-08-11 16:51:00,
2013-08-11 12:59:00,87.1,74.8,30.14,SE,135,8.0,-999.0,67,-99.99,,,-99.99,meteohub,2013-08-11 16:59:00,
2013-08-11 13:05:00,87.1,73.9,30.14,SE,135,12.0,-999.0,65,-99.99,,,-99.99,meteohub,2013-08-11 17:05:00,
2013-08-11 13:11:00,87.1,74.3,30.14,SE,135,7.0,-999.0,66,-99.99,,,-99.99,meteohub,2013-08-11 17:11:00,
2013-08-11 13:16:00,87.1,73.4,30.14,SE,135,12.0,-999.0,64,-99.99,,,-99.99,meteohub,2013-08-11 17:16:00,
2013-08-11 13:21:00,87.1,74.8,30.14,SE,135,10.0,-999.0,67,-99.99,,,-99.99,meteohub,2013-08-11 17:21:00,
2013-08-11 13:26:00,87.1,73.9,30.14,SE,135,12.0,-999.0,65,-99.99,,,-99.99,meteohub,2013-08-11 17:26:00,
2013-08-11 13:32:00,87.1,74.3,30.14,SE,135,5.0,-999.0,66,-99.99,,,-99.99,meteohub,2013-08-11 17:32:00,
2013-08-11 13:37:00,87.1,72.9,30.14,SE,135,10.0,-999.0,63,-99.99,,,-99.99,meteohub,2013-08-11 17:37:00,
2013-08-11 13:42:00,87.1,74.3,30.14,SE,135,10.0,-999.0,66,-99.99,,,-99.99,meteohub,2013-08-11 17:42:00,
2013-08-11 13:47:00,87.1,74.3,30.14,SE,135,11.0,-999.0,66,-99.99,,,-99.99,meteohub,2013-08-11 17:47:00,
2013-08-11 13:52:00,87.1,74.3,30.14,SE,135,10.0,-999.0,66,-99.99,,,-99.99,meteohub,2013-08-11 17:52:00,
2013-08-11 13:57:00,87.1,73.9,30.14,SE,135,8.0,-999.0,65,-99.99,,,-99.99,meteohub,2013-08-11 17:57:00,
2013-08-11 14:03:00,87.1,74.3,30.14,SE,135,9.0,-999.0,66,-99.99,,,-99.99,meteohub,2013-08-11 18:03:00,
2013-08-11 14:09:00,87.1,73.9,30.14,SE,135,9.0,-999.0,65,-99.99,,,-99.99,meteohub,2013-08-11 18:09:00,
2013-08-11 14:15:00,87.1,73.9,30.14,SE,135,7.0,-999.0,65,-99.99,,,-99.99,meteohub,2013-08-11 18:15:00,
2013-08-11 14:21:00,88.0,75.2,30.14,SE,135,9.0,-999.0,66,-99.99,,,-99.99,meteohub,2013-08-11 18:21:00,
2013-08-11 14:27:00,87.1,74.8,30.14,SE,135,9.0,-999.0,67,-99.99,,,-99.99,meteohub,2013-08-11 18:27:00,
2013-08-11 14:32:00,87.1,74.3,30.14,SE,135,7.0,-999.0,66,-99.99,,,-99.99,meteohub,2013-08-11 18:32:00,
2013-08-11 14:37:00,88.0,74.3,30.13,SE,135,11.0,-999.0,64,-99.99,,,-99.99,meteohub,2013-08-11 18:37:00,
2013-08-11 14:42:00,87.1,74.8,30.12,SE,135,7.0,-999.0,67,-99.99,,,-99.99,meteohub,2013-08-11 18:42:00,
2013-08-11 14:51:00,88.0,74.7,30.12,SE,135,10.0,-999.0,65,-99.99,,,-99.99,meteohub,2013-08-11 18:51:00,
2013-08-11 14:56:00,88.0,75.6,30.12,SE,135,10.0,-999.0,67,-99.99,,,-99.99,meteohub,2013-08-11 18:56:00,
2013-08-11 15:02:00,88.0,74.7,30.12,SE,135,12.0,-999.0,65,-99.99,,,-99.99,meteohub,2013-08-11 19:02:00,
2013-08-11 15:07:00,88.0,73.8,30.12,SE,135,10.0,-999.0,63,-99.99,,,-99.99,meteohub,2013-08-11 19:07:00,
2013-08-11 15:13:00,88.0,73.8,30.12,SE,135,10.0,-999.0,63,-99.99,,,-99.99,meteohub,2013-08-11 19:13:00,
2013-08-11 15:20:00,89.1,74.8,30.12,SE,135,6.0,-999.0,63,-99.99,,,-99.99,meteohub,2013-08-11 19:20:00,
2013-08-11 15:25:00,89.1,75.2,30.12,SE,135,11.0,-999.0,64,-99.99,,,-99.99,meteohub,2013-08-11 19:25:00,
2013-08-11 15:30:00,90.0,73.8,30.11,SE,135,7.0,-999.0,59,-99.99,,,-99.99,meteohub,2013-08-11 19:30:00,
2013-08-11 15:37:00,90.0,73.8,30.11,SE,135,9.0,-999.0,59,-99.99,,,-99.99,meteohub,2013-08-11 19:37:00,
2013-08-11 15:42:00,89.1,71.8,30.11,SE,135,11.0,-999.0,57,-99.99,,,-99.99,meteohub,2013-08-11 19:42:00,
2013-08-11 15:47:00,90.0,71.1,30.09,SE,135,9.0,-999.0,54,-99.99,,,-99.99,meteohub,2013-08-11 19:47:00,
2013-08-11 15:52:00,90.0,73.8,30.09,SE,135,13.0,-999.0,59,-99.99,,,-99.99,meteohub,2013-08-11 19:52:00,
2013-08-11 15:57:00,89.1,75.2,30.09,SE,135,12.0,-999.0,64,-99.99,,,-99.99,meteohub,2013-08-11 19:57:00,
2013-08-11 16:02:00,88.0,72.9,30.09,NE,45,11.0,-999.0,61,-99.99,,,-99.99,meteohub,2013-08-11 20:02:00,
2013-08-11 16:07:00,89.1,73.4,30.09,SE,135,10.0,-999.0,60,-99.99,,,-99.99,meteohub,2013-08-11 20:07:00,
2013-08-11 16:12:00,89.1,76.6,30.09,SE,135,10.0,-999.0,67,-99.99,,,-99.99,meteohub,2013-08-11 20:12:00,
2013-08-11 16:17:00,88.0,74.7,30.09,SE,135,12.0,-999.0,65,-99.99,,,-99.99,meteohub,2013-08-11 20:17:00,
2013-08-11 16:22:00,88.0,73.4,30.09,SE,135,10.0,-999.0,62,-99.99,,,-99.99,meteohub,2013-08-11 20:22:00,
2013-08-11 16:27:00,88.0,73.4,30.08,SE,135,8.0,-999.0,62,-99.99,,,-99.99,meteohub,2013-08-11 20:27:00,
2013-08-11 16:32:00,88.0,74.7,30.08,SE,135,11.0,-999.0,65,-99.99,,,-99.99,meteohub,2013-08-11 20:32:00,
2013-08-11 16:38:00,88.0,74.7,30.08,SE,135,12.0,-999.0,65,-99.99,,,-99.99,meteohub,2013-08-11 20:38:00,
2013-08-11 16:44:00,88.0,71.8,30.08,SE,135,13.0,-999.0,59,-99.99,,,-99.99,meteohub,2013-08-11 20:44:00,
2013-08-11 16:50:00,88.0,72.9,30.08,SE,135,8.0,-999.0,61,-99.99,,,-99.99,meteohub,2013-08-11 20:50:00,
2013-08-11 16:57:00,88.0,74.3,30.08,SE,135,9.0,-999.0,64,-99.99,,,-99.99,meteohub,2013-08-11 20:57:00,
2013-08-11 17:02:00,89.1,72.9,30.08,SE,135,10.0,-999.0,59,-99.99,,,-99.99,meteohub,2013-08-11 21:02:00,
2013-08-11 17:07:00,89.1,73.4,30.08,SE,135,10.0,-999.0,60,-99.99,,,-99.99,meteohub,2013-08-11 21:07:00,
2013-08-11 17:12:00,89.1,74.8,30.08,SE,135,10.0,-999.0,63,-99.99,,,-99.99,meteohub,2013-08-11 21:12:00,
2013-08-11 17:17:00,89.1,74.8,30.08,SE,135,13.0,-999.0,63,-99.99,,,-99.99,meteohub,2013-08-11 21:17:00,
2013-08-11 17:22:00,88.0,74.3,30.08,SE,135,9.0,-999.0,64,-99.99,,,-99.99,meteohub,2013-08-11 21:22:00,
2013-08-11 17:27:00,89.1,74.8,30.08,SE,135,13.0,-999.0,63,-99.99,,,-99.99,meteohub,2013-08-11 21:27:00,
2013-08-11 17:32:00,89.1,74.8,30.08,SE,135,9.0,-999.0,63,-99.99,,,-99.99,meteohub,2013-08-11 21:32:00,
2013-08-11 17:37:00,89.1,73.9,30.08,SE,135,13.0,-999.0,61,-99.99,,,-99.99,meteohub,2013-08-11 21:37:00,
2013-08-11 17:42:00,88.0,74.7,30.08,SE,135,13.0,-999.0,65,-99.99,,,-99.99,meteohub,2013-08-11 21:42:00,
2013-08-11 17:48:00,88.0,75.6,30.08,SE,135,9.0,-999.0,67,-99.99,,,-99.99,meteohub,2013-08-11 21:48:00,
2013-08-11 17:53:00,88.0,73.8,30.08,SE,135,14.0,-999.0,63,-99.99,,,-99.99,meteohub,2013-08-11 21:53:00,
2013-08-11 17:59:00,88.0,73.8,30.08,SE,135,10.0,-999.0,63,-99.99,,,-99.99,meteohub,2013-08-11 21:59:00,
2013-08-11 18:04:00,89.1,74.8,30.08,SE,135,11.0,-999.0,63,-99.99,,,-99.99,meteohub,2013-08-11 22:04:00,
2013-08-11 18:10:00,89.1,74.8,30.08,SE,135,10.0,-999.0,63,-99.99,,,-99.99,meteohub,2013-08-11 22:10:00,
2013-08-11 18:16:00,89.1,74.8,30.08,SE,135,10.0,-999.0,63,-99.99,,,-99.99,meteohub,2013-08-11 22:16:00,
2013-08-11 18:22:00,89.1,73.4,30.08,SE,135,7.0,-999.0,60,-99.99,,,-99.99,meteohub,2013-08-11 22:22:00,
2013-08-11 18:27:00,88.0,73.8,30.08,SE,135,10.0,-999.0,63,-99.99,,,-99.99,meteohub,2013-08-11 22:27:00,
2013-08-11 18:33:00,88.0,73.8,30.08,SE,135,10.0,-999.0,63,-99.99,,,-99.99,meteohub,2013-08-11 22:33:00,
2013-08-11 18:38:00,88.0,74.3,30.08,SE,135,7.0,-999.0,64,-99.99,,,-99.99,meteohub,2013-08-11 22:38:00,
2013-08-11 18:43:00,89.1,72.3,30.08,SE,135,6.0,-999.0,58,-99.99,,,-99.99,meteohub,2013-08-11 22:43:00,
2013-08-11 18:52:00,89.1,73.9,30.08,SE,135,10.0,-999.0,61,-99.99,,,-99.99,meteohub,2013-08-11 22:52:00,
2013-08-11 18:57:00,89.1,73.4,30.08,SE,135,9.0,-999.0,60,-99.99,,,-99.99,meteohub,2013-08-11 22:57:00,
2013-08-11 19:02:00,89.1,72.9,30.08,SE,135,7.0,-999.0,59,-99.99,,,-99.99,meteohub,2013-08-11 23:02:00,
2013-08-11 19:07:00,88.0,74.7,30.08,SE,135,8.0,-999.0,65,-99.99,,,-99.99,meteohub,2013-08-11 23:07:00,
2013-08-11 19:14:00,88.0,74.7,30.08,SE,135,8.0,-999.0,65,-99.99,,,-99.99,meteohub,2013-08-11 23:14:00,
2013-08-11 19:20:00,88.0,74.7,30.08,SE,135,11.0,-999.0,65,-99.99,,,-99.99,meteohub,2013-08-11 23:20:00,
2013-08-11 19:25:00,87.1,74.8,30.08,SE,135,7.0,-999.0,67,-99.99,,,-99.99,meteohub,2013-08-11 23:25:00,
2013-08-11 19:32:00,87.1,76.5,30.08,SE,135,7.0,-999.0,71,-99.99,,,-99.99,meteohub,2013-08-11 23:32:00,
2013-08-11 19:40:00,87.1,73.9,30.08,SE,135,6.0,-999.0,65,-99.99,,,-99.99,meteohub,2013-08-11 23:40:00,
2013-08-11 19:46:00,88.0,73.4,30.08,NE,45,6.0,-999.0,62,-99.99,,,-99.99,meteohub,2013-08-11 23:46:00,
2013-08-11 19:51:00,87.1,72.0,30.08,NE,45,6.0,-999.0,61,-99.99,,,-99.99,meteohub,2013-08-11 23:51:00,
2013-08-11 19:56:00,87.1,74.3,30.08,NE,45,10.0,-999.0,66,-99.99,,,-99.99,meteohub,2013-08-11 23:56:00,
2013-08-11 20:01:00,87.1,74.8,30.08,NE,45,6.0,-999.0,67,-99.99,,,-99.99,meteohub,2013-08-12 00:01:00,
2013-08-11 20:07:00,87.1,75.2,30.09,NE,45,12.0,-999.0,68,-99.99,,,-99.99,meteohub,2013-08-12 00:07:00,
2013-08-11 20:12:00,86.0,74.7,30.09,SE,135,9.0,-999.0,69,-99.99,,,-99.99,meteohub,2013-08-12 00:12:00,
2013-08-11 20:17:00,86.0,73.8,30.09,NE,45,9.0,-999.0,67,-99.99,,,-99.99,meteohub,2013-08-12 00:17:00,
2013-08-11 20:22:00,86.0,73.8,30.09,NE,45,10.0,-999.0,67,-99.99,,,-99.99,meteohub,2013-08-12 00:22:00,
2013-08-11 20:27:00,86.0,73.8,30.09,NE,45,12.0,-999.0,67,-99.99,,,-99.99,meteohub,2013-08-12 00:27:00,
2013-08-11 20:32:00,86.0,74.1,30.09,NE,45,7.0,-999.0,68,-99.99,,,-99.99,meteohub,2013-08-12 00:32:00,
2013-08-11 20:37:00,84.9,73.6,30.09,SE,135,11.0,-999.0,69,-99.99,,,-99.99,meteohub,2013-08-12 00:37:00,
2013-08-11 20:42:00,84.9,73.2,30.11,NE,45,10.0,-999.0,68,-99.99,,,-99.99,meteohub,2013-08-12 00:42:00,
2013-08-11 20:47:00,84.9,74.1,30.09,NE,45,10.0,-999.0,70,-99.99,,,-99.99,meteohub,2013-08-12 00:47:00,
2013-08-11 20:53:00,84.9,74.1,30.11,NE,45,12.0,-999.0,70,-99.99,,,-99.99,meteohub,2013-08-12 00:53:00,
2013-08-11 21:00:00,84.9,74.1,30.11,NE,45,9.0,-999.0,70,-99.99,,,-99.99,meteohub,2013-08-12 01:00:00,
2013-08-11 21:06:00,84.0,73.6,30.11,NE,45,10.0,-999.0,71,-99.99,,,-99.99,meteohub,2013-08-12 01:06:00,
2013-08-11 21:12:00,84.0,73.6,30.12,NE,45,12.0,-999.0,71,-99.99,,,-99.99,meteohub,2013-08-12 01:12:00,
2013-08-11 21:17:00,84.0,73.6,30.12,NE,45,12.0,-999.0,71,-99.99,,,-99.99,meteohub,2013-08-12 01:17:00,
2013-08-11 21:22:00,84.0,73.6,30.12,NE,45,10.0,-999.0,71,-99.99,,,-99.99,meteohub,2013-08-12 01:22:00,
2013-08-11 21:27:00,84.0,73.9,30.12,NE,45,11.0,-999.0,72,-99.99,,,-99.99,meteohub,2013-08-12 01:27:00,
2013-08-11 21:32:00,84.0,73.9,30.12,NE,45,10.0,-999.0,72,-99.99,,,-99.99,meteohub,2013-08-12 01:32:00,
2013-08-11 21:37:00,82.9,73.0,30.13,NE,45,9.0,-999.0,72,-99.99,,,-99.99,meteohub,2013-08-12 01:37:00,
2013-08-11 21:42:00,82.9,73.4,30.13,NE,45,7.0,-999.0,73,-99.99,,,-99.99,meteohub,2013-08-12 01:42:00,
2013-08-11 21:47:00,82.9,73.4,30.13,SE,135,10.0,-999.0,73,-99.99,,,-99.99,meteohub,2013-08-12 01:47:00,
2013-08-11 21:52:00,82.9,73.0,30.13,NE,45,9.0,-999.0,72,-99.99,,,-99.99,meteohub,2013-08-12 01:52:00,
2013-08-11 21:58:00,82.9,73.0,30.14,NE,45,6.0,-999.0,72,-99.99,,,-99.99,meteohub,2013-08-12 01:58:00,
2013-08-11 22:04:00,82.9,73.8,30.14,SE,135,5.0,-999.0,74,-99.99,,,-99.99,meteohub,2013-08-12 02:04:00,
2013-08-11 22:10:00,82.9,73.8,30.14,SE,135,7.0,-999.0,74,-99.99,,,-99.99,meteohub,2013-08-12 02:10:00,
2013-08-11 22:17:00,82.9,73.8,30.14,NE,45,8.0,-999.0,74,-99.99,,,-99.99,meteohub,2013-08-12 02:17:00,
2013-08-11 22:22:00,82.0,73.8,30.14,NE,45,9.0,-999.0,76,-99.99,,,-99.99,meteohub,2013-08-12 02:22:00,
2013-08-11 22:27:00,82.0,72.9,30.14,NE,45,5.0,-999.0,74,-99.99,,,-99.99,meteohub,2013-08-12 02:27:00,
2013-08-11 22:32:00,82.0,73.8,30.14,NE,45,10.0,-999.0,76,-99.99,,,-99.99,meteohub,2013-08-12 02:32:00,
2013-08-11 22:40:00,82.0,73.4,30.14,NE,45,8.0,-999.0,75,-99.99,,,-99.99,meteohub,2013-08-12 02:40:00,
2013-08-11 22:46:00,82.0,74.1,30.14,SE,135,13.0,-999.0,77,-99.99,,,-99.99,meteohub,2013-08-12 02:46:00,
2013-08-11 22:51:00,82.0,73.8,30.14,NE,45,6.0,-999.0,76,-99.99,,,-99.99,meteohub,2013-08-12 02:51:00,
2013-08-11 22:56:00,82.0,73.8,30.14,NE,45,7.0,-999.0,76,-99.99,,,-99.99,meteohub,2013-08-12 02:56:00,
2013-08-11 23:02:00,81.0,72.7,30.14,NE,45,8.0,-999.0,76,-99.99,,,-99.99,meteohub,2013-08-12 03:02:00,
2013-08-11 23:07:00,81.0,72.7,30.14,NE,45,8.0,-999.0,76,-99.99,,,-99.99,meteohub,2013-08-12 03:07:00,
2013-08-11 23:12:00,81.0,73.0,30.14,NE,45,7.0,-999.0,77,-99.99,,,-99.99,meteohub,2013-08-12 03:12:00,
2013-08-11 23:17:00,81.0,73.0,30.14,NE,45,10.0,-999.0,77,-99.99,,,-99.99,meteohub,2013-08-12 03:17:00,
2013-08-11 23:22:00,81.0,72.7,30.14,NE,45,6.0,-999.0,76,-99.99,,,-99.99,meteohub,2013-08-12 03:22:00,
2013-08-11 23:27:00,81.0,74.1,30.14,SE,135,6.0,-999.0,80,-99.99,,,-99.99,meteohub,2013-08-12 03:27:00,
2013-08-11 23:32:00,81.0,73.4,30.14,NE,45,7.0,-999.0,78,-99.99,,,-99.99,meteohub,2013-08-12 03:32:00,
2013-08-11 23:37:00,81.0,74.1,30.14,SE,135,9.0,-999.0,80,-99.99,,,-99.99,meteohub,2013-08-12 03:37:00,
2013-08-11 23:42:00,81.0,73.0,30.14,SE,135,11.0,-999.0,77,-99.99,,,-99.99,meteohub,2013-08-12 03:42:00,
2013-08-11 23:47:00,80.1,72.5,30.14,NE,45,10.0,-999.0,78,-99.99,,,-99.99,meteohub,2013-08-12 03:47:00,
2013-08-11 23:55:00,80.1,73.0,30.14,NE,45,8.0,-999.0,79,-99.99,,,-99.99,meteohub,2013-08-12 03:55:00,